Destin, FL

6:56 AM CST on January 22, 2018 (GMT -0600)
Destin-Fort Walton Beach

Weather History for KDTS - February, 2013

Change the Weather History Date:

Monday, February 11, 2013

  Actual Average Record
Temperature  
Mean Temperature 66 °F -  
Max Temperature 73 °F 60 °F 73 °F (2013)
Min Temperature 60 °F 46 °F 30 °F (2011)
Cooling Degree Days 2    
Growing Degree Days 16 (Base 50)    
Moisture  
Dew Point 64 °F    
Average Humidity 87    
Maximum Humidity 94    
Minimum Humidity 78    
Precipitation  
Precipitation 0.31 in - - ()
Sea Level Pressure  
Sea Level Pressure 30.06 in    
Wind  
Wind Speed 10 mph (SE)    
Max Wind Speed 15 mph    
Max Gust Speed 26 mph    
Visibility 8 miles    
Events Rain , Thunderstorm    
Averages and records for this station are not official NWS values.
T = Trace of Precipitation, MM = Missing Value Source: NWS Daily Summary

Daily Weather History Graph

Daily Weather History Graph

Search for Another Location

Airport or City:

Trip Planner

Search our weather history database for the weather conditions in past years. The results will help you decide how hot, cold, wet, or windy it might be!

Date:

Astronomy

Feb. 11, 2013 Rise Set
Actual Time 6:29 AM CST 5:31 PM CST
Civil Twilight 6:04 AM CST 5:55 PM CST
Nautical Twilight 5:36 AM CST 6:24 PM CST
Astronomical Twilight 5:08 AM CST 6:52 PM CST
Moon 7:03 AM CST (2/11) 7:14 PM CST (2/11)
Length of Visible Light 11h 51m
Length of Day
11h 01m
Waxing Crescent, 3% of the Moon is Illuminated
Feb 11
Waxing Crescent
Feb 17
First Quarter
Feb 25
Full
Mar 4
Last Quarter
Mar 11
New

Hourly Weather History & Observations

Time (CST) Temp. Dew Point Humidity Pressure Visibility Wind Dir Wind Speed Gust Speed Precip Events Conditions
12:20 AM 69.8 °F 66.2 °F 88% 30.05 in 7.0 mi South 8.1 mph 18.4 mph N/A   Overcast
12:36 AM 69.8 °F 66.2 °F 88% 30.05 in 7.0 mi South 15.0 mph 24.2 mph N/A   Overcast
12:53 AM 69.1 °F 66.0 °F 90% 30.05 in 8.0 mi South 9.2 mph 23.0 mph N/A   Overcast
1:03 AM 69.8 °F 66.2 °F 88% 30.05 in 8.0 mi South 9.2 mph 18.4 mph N/A   Overcast
1:26 AM 69.8 °F 66.2 °F 88% 30.04 in 8.0 mi South 11.5 mph 24.2 mph N/A   Overcast
1:53 AM 69.1 °F 66.0 °F 90% 30.04 in 7.0 mi South 9.2 mph - N/A   Overcast
2:53 AM 69.1 °F 66.0 °F 90% 30.03 in 7.0 mi South 8.1 mph - N/A   Overcast
3:53 AM 69.1 °F 66.0 °F 90% 30.04 in 7.0 mi South 9.2 mph - N/A   Overcast
4:53 AM 69.1 °F 66.0 °F 90% 30.04 in 8.0 mi South 11.5 mph 19.6 mph N/A   Overcast
5:53 AM 70.0 °F 66.9 °F 90% 30.04 in 8.0 mi South 12.7 mph 26.5 mph N/A   Overcast
6:53 AM 70.0 °F 66.9 °F 90% 30.06 in 7.0 mi South 10.4 mph 18.4 mph N/A   Overcast
7:53 AM 71.1 °F 66.9 °F 87% 30.08 in 8.0 mi South 10.4 mph 18.4 mph N/A   Overcast
8:15 AM 69.8 °F 66.2 °F 88% 30.09 in 7.0 mi Variable 6.9 mph - N/A   Overcast
8:53 AM 71.1 °F 66.9 °F 87% 30.09 in 8.0 mi South 9.2 mph - N/A   Overcast
9:53 AM 71.1 °F 66.9 °F 87% 30.11 in 9.0 mi South 6.9 mph 17.3 mph N/A   Overcast
10:06 AM 71.6 °F 66.2 °F 83% 30.11 in 9.0 mi South 6.9 mph - N/A   Overcast
10:37 AM 71.6 °F 66.2 °F 83% 30.10 in 9.0 mi South 11.5 mph 19.6 mph N/A   Overcast
10:53 AM 73.0 °F 66.9 °F 81% 30.10 in 9.0 mi SSE 9.2 mph - N/A   Overcast
10:55 AM 71.6 °F 66.2 °F 83% 30.10 in 9.0 mi SSE 9.2 mph - N/A   Overcast
11:16 AM 69.8 °F 66.2 °F 88% 30.09 in 4.0 mi South 9.2 mph - 0.01 in Rain , Thunderstorm Light Thunderstorms and Rain
11:30 AM 69.8 °F 64.4 °F 83% 30.09 in 5.0 mi SW 8.1 mph 21.9 mph 0.04 in Rain , Thunderstorm Light Thunderstorms and Rain
11:44 AM 71.6 °F 66.2 °F 83% 30.09 in 10.0 mi South 9.2 mph - 0.04 in   Overcast
11:53 AM 72.0 °F 68.0 °F 87% 30.09 in 8.0 mi South 8.1 mph - 0.04 in   Overcast
12:04 PM 71.6 °F 68.0 °F 88% 30.08 in 9.0 mi South 6.9 mph - N/A   Overcast
12:18 PM 71.6 °F 68.0 °F 88% 30.08 in 7.0 mi SSE 8.1 mph - N/A   Overcast
12:53 PM 71.1 °F 68.0 °F 90% 30.06 in 8.0 mi SSE 8.1 mph - N/A   Overcast
1:10 PM 71.6 °F 68.0 °F 88% 30.05 in 9.0 mi SSE 6.9 mph - N/A   Overcast
1:38 PM 69.8 °F 64.4 °F 83% 30.06 in 9.0 mi North 6.9 mph - N/A   Overcast
1:53 PM 66.9 °F 62.1 °F 84% 30.05 in 10.0 mi Variable 6.9 mph - N/A   Overcast
2:33 PM 66.2 °F 62.6 °F 88% 30.05 in 6.0 mi North 8.1 mph - 0.04 in Rain Rain
2:44 PM 66.2 °F 62.6 °F 88% 30.07 in 3.0 mi NNW 13.8 mph - 0.12 in Rain Heavy Rain
2:50 PM 64.4 °F 62.6 °F 94% 30.06 in 2.0 mi NNE 9.2 mph - 0.17 in Rain Heavy Rain
2:51 PM 64.9 °F 63.0 °F 93% 30.06 in 2.0 mi NNE 9.2 mph - 0.18 in Rain Heavy Rain
3:01 PM 64.4 °F 62.6 °F 94% 30.06 in 2.5 mi North 10.4 mph - 0.03 in Rain Rain
3:06 PM 64.4 °F 62.6 °F 94% 30.06 in 3.0 mi NNE 11.5 mph - 0.04 in Rain Rain
3:16 PM 64.4 °F 62.6 °F 94% 30.05 in 9.0 mi NNE 11.5 mph - 0.04 in Rain Light Rain
3:53 PM 64.9 °F 62.1 °F 90% 30.04 in 10.0 mi North 10.4 mph - 0.06 in Rain Light Rain
4:53 PM 63.0 °F 57.0 °F 81% 30.06 in 10.0 mi NNE 11.5 mph 21.9 mph 0.00 in   Overcast
5:53 PM 62.1 °F 55.9 °F 80% 30.05 in 10.0 mi NE 13.8 mph 19.6 mph N/A   Mostly Cloudy
6:53 PM 62.1 °F 55.0 °F 78% 30.06 in 10.0 mi NNE 10.4 mph - N/A   Mostly Cloudy
7:53 PM 62.1 °F 57.0 °F 84% 30.08 in 10.0 mi North 9.2 mph - N/A   Overcast
8:53 PM 61.0 °F 57.0 °F 87% 30.07 in 10.0 mi NNE 9.2 mph - 0.03 in Rain Light Rain
9:53 PM 61.0 °F 55.9 °F 83% 30.06 in 10.0 mi ENE 5.8 mph - 0.00 in   Mostly Cloudy
10:03 PM 60.8 °F 55.4 °F 82% 30.05 in 10.0 mi NNE 5.8 mph - N/A   Overcast
10:32 PM 60.8 °F 57.2 °F 88% 30.06 in 10.0 mi ENE 8.1 mph - N/A   Overcast
10:53 PM 62.1 °F 57.0 °F 84% 30.06 in 10.0 mi ENE 6.9 mph - N/A   Overcast
11:53 PM 62.1 °F 57.0 °F 84% 30.03 in 10.0 mi East 10.4 mph - N/A   Scattered Clouds